This is the latest recevied weather packets stored in our database for station/object KD7ECD. If no packets are shown the sender has not sent any weather packets the latest 10 day(s).
| Time | Temp. | Humidity | Pressure | Rain* | Wind** | Luminosity | Snow |
|---|---|---|---|---|---|---|---|
| 1778076911 | 12.22° C | 90% | 1022.9 hPa | 0 mm | - | 40 W/m² | - |
| 1778076306 | 12.22° C | 91% | 1022.7 hPa | 0 mm | - | 43 W/m² | - |
| 1778075706 | 11.67° C | 91% | 1022.8 hPa | 0 mm | - | 24 W/m² | - |
| 1778075103 | 11.67° C | 92% | 1022.7 hPa | 0 mm | - | 15 W/m² | - |
| 1778074503 | 11.67° C | 92% | 1022.6 hPa | 0 mm | - | 10 W/m² | - |
| 1778073903 | 11.67° C | 92% | 1022.5 hPa | 0 mm | - | 6 W/m² | - |
| 1778073297 | 11.67° C | 93% | 1022.4 hPa | 0 mm | - | 3 W/m² | - |
| 1778072696 | 11.67° C | 93% | 1022.5 hPa | 0 mm | - | 0 W/m² | - |
| 1778072092 | 11.67° C | 93% | 1022.2 hPa | 0 mm | - | 0 W/m² | - |
| 1778071487 | 11.67° C | 94% | 1022.1 hPa | 0 mm | - | 0 W/m² | - |
| 1778070883 | 11.67° C | 94% | 1022.1 hPa | 0 mm | - | 0 W/m² | - |
| 1778070283 | 11.11° C | 94% | 1022.1 hPa | 0 mm | - | 0 W/m² | - |
| 1778069678 | 11.11° C | 94% | 1022.2 hPa | 0 mm | - | 0 W/m² | - |
| 1778069078 | 11.11° C | 95% | 1022.1 hPa | 0 mm | - | 0 W/m² | - |
| 1778068473 | 11.11° C | 95% | 1022 hPa | 0 mm | - | 0 W/m² | - |
| 1778067868 | 11.11° C | 96% | 1022 hPa | 0 mm | - | 0 W/m² | - |
| 1778067264 | 11.11° C | 96% | 1021.9 hPa | 0 mm | - | 0 W/m² | - |
| 1778066664 | 11.11° C | 96% | 1022.1 hPa | 0 mm | - | 0 W/m² | - |
| 1778066059 | 11.11° C | 96% | 1021.5 hPa | 0 mm | - | 0 W/m² | - |
| 1778065454 | 11.11° C | 96% | 1021.7 hPa | 0 mm | - | 0 W/m² | - |
| 1778064852 | 11.11° C | 96% | 1021.7 hPa | 0 mm | - | 0 W/m² | - |
| 1778064248 | 10.56° C | 96% | 1021.6 hPa | 0 mm | - | 0 W/m² | - |
| 1778063642 | 10.56° C | 96% | 1021.8 hPa | 0 mm | - | 0 W/m² | - |
| 1778063038 | 10.56° C | 96% | 1021.3 hPa | 0 mm | - | 0 W/m² | - |
| 1778062436 | 10° C | 96% | 1021.6 hPa | 0 mm | - | 0 W/m² | - |
* Rain latest hour (hover to see other rain measurements)
** Current wind speed in m/s (hover to see current wind gust speed)